This is the latest recevied weather packets stored in our database for station/object N5SRF. If no packets are shown the sender has not sent any weather packets the latest 10 day(s).
| Time | Temp. | Humidity | Pressure | Rain* | Wind** | Luminosity | Snow |
|---|---|---|---|---|---|---|---|
| 1777775816 | 14.44° C | 87% | 1023.9 hPa | 0 mm | - | 0 W/m² | - |
| 1777775512 | 14.44° C | 87% | 1024 hPa | 0 mm | - | 0 W/m² | - |
| 1777775209 | 14.44° C | 85% | 1024 hPa | 0 mm | - | 0 W/m² | - |
| 1777774908 | 15° C | 84% | 1023.9 hPa | 0 mm | - | 0 W/m² | - |
| 1777774605 | 15° C | 84% | 1024 hPa | 0 mm | - | 0 W/m² | - |
| 1777774302 | 15° C | 83% | 1024 hPa | 0 mm | - | 0 W/m² | - |
| 1777773999 | 15° C | 81% | 1023.7 hPa | 0 mm | - | 0 W/m² | - |
| 1777773697 | 15.56° C | 79% | 1023.6 hPa | 0 mm | - | 0 W/m² | - |
| 1777773393 | 15.56° C | 79% | 1023.5 hPa | 0 mm | - | 0 W/m² | - |
| 1777773090 | 16.11° C | 78% | 1023.6 hPa | 0 mm | - | 0 W/m² | - |
| 1777772786 | 16.67° C | 76% | 1023.4 hPa | 0 mm | - | 0 W/m² | - |
| 1777772484 | 16.67° C | 75% | 1023.5 hPa | 0 mm | - | 0 W/m² | - |
| 1777772181 | 17.22° C | 73% | 1023.4 hPa | 0 mm | - | 0 W/m² | - |
| 1777771879 | 17.78° C | 72% | 1023.4 hPa | 0 mm | - | 0 W/m² | - |
| 1777771576 | 17.78° C | 70% | 1023.4 hPa | 0 mm | - | 0 W/m² | - |
| 1777771273 | 18.33° C | 69% | 1023.1 hPa | 0 mm | - | 0 W/m² | - |
| 1777770969 | 18.33° C | 68% | 1023.4 hPa | 0 mm | - | 0 W/m² | - |
| 1777770667 | 18.33° C | 67% | 1023.4 hPa | 0 mm | - | 0 W/m² | - |
| 1777770362 | 18.89° C | 67% | 1023.1 hPa | 0 mm | - | 2 W/m² | - |
| 1777770060 | 18.89° C | 66% | 1023.2 hPa | 0 mm | - | 3 W/m² | - |
| 1777769757 | 18.89° C | 65% | 1023.1 hPa | 0 mm | - | 5 W/m² | - |
| 1777769454 | 19.44° C | 64% | 1023 hPa | 0 mm | - | 7 W/m² | - |
| 1777769150 | 19.44° C | 64% | 1022.9 hPa | 0 mm | - | 11 W/m² | - |
| 1777768849 | 19.44° C | 63% | 1022.9 hPa | 0 mm | - | 13 W/m² | - |
| 1777768545 | 20° C | 62% | 1022.6 hPa | 0 mm | - | 16 W/m² | - |
* Rain latest hour (hover to see other rain measurements)
** Current wind speed in m/s (hover to see current wind gust speed)